Time,TemperatureF,DewpointF,PressureIn,WindDirection,WindDirectionDegrees,WindSpeedMPH,WindSpeedGustMPH,Humidity,HourlyPrecipIn,Conditions,Clouds,dailyrainin,SoftwareType,DateUTC
2018-02-18 00:01:00,66.0,60.7,30.16,SW,229,1.0,1.0,83,0.00,,---,0.00,VWS V15.00,2018-02-18 05:01:00,
2018-02-18 00:06:00,65.8,60.8,30.16,WSW,250,2.0,3.0,84,0.00,,---,0.00,VWS V15.00,2018-02-18 05:06:00,
2018-02-18 00:11:00,65.7,60.7,30.16,West,275,1.0,4.0,84,0.00,,---,0.00,VWS V15.00,2018-02-18 05:11:00,
2018-02-18 00:16:00,65.7,60.7,30.16,WSW,253,2.0,3.0,84,0.00,,---,0.00,VWS V15.00,2018-02-18 05:16:00,
2018-02-18 00:21:00,65.6,61.0,30.16,West,261,3.0,5.0,85,0.00,,---,0.00,VWS V15.00,2018-02-18 05:21:00,
2018-02-18 00:26:00,65.5,60.9,30.16,West,268,3.0,5.0,85,0.00,,---,0.00,VWS V15.00,2018-02-18 05:26:00,
2018-02-18 00:31:00,65.3,60.7,30.16,SW,236,2.0,4.0,85,0.00,,---,0.00,VWS V15.00,2018-02-18 05:31:00,
2018-02-18 00:36:00,65.1,60.5,30.16,WSW,237,3.0,4.0,85,0.00,,---,0.00,VWS V15.00,2018-02-18 05:36:00,
2018-02-18 00:37:00,65.0,60.4,30.15,WSW,238,2.0,4.0,85,0.00,,---,0.00,VWS V15.00,2018-02-18 05:37:00,
2018-02-18 00:42:00,64.9,60.6,30.15,WSW,245,2.0,4.0,86,0.00,,---,0.00,VWS V15.00,2018-02-18 05:42:00,
2018-02-18 00:48:00,64.6,60.3,30.15,WSW,248,3.0,5.0,86,0.00,,---,0.00,VWS V15.00,2018-02-18 05:48:00,
2018-02-18 00:53:00,64.5,60.5,30.15,West,261,2.0,5.0,87,0.00,,---,0.00,VWS V15.00,2018-02-18 05:53:00,
2018-02-18 00:57:00,64.4,60.5,30.15,SW,231,2.0,5.0,87,0.00,,---,0.00,VWS V15.00,2018-02-18 05:57:00,
2018-02-18 01:03:00,64.2,60.3,30.15,WSW,240,2.0,4.0,87,0.00,,---,0.00,VWS V15.00,2018-02-18 06:03:00,
2018-02-18 01:08:00,64.0,60.4,30.15,West,262,2.0,4.0,88,0.00,,---,0.00,VWS V15.00,2018-02-18 06:08:00,
2018-02-18 01:13:00,64.0,60.4,30.15,WSW,252,2.0,4.0,88,0.00,,---,0.00,VWS V15.00,2018-02-18 06:13:00,
2018-02-18 01:18:00,63.9,60.3,30.15,WSW,257,2.0,4.0,88,0.00,,---,0.00,VWS V15.00,2018-02-18 06:18:00,
2018-02-18 01:23:00,63.8,60.5,30.15,West,261,2.0,4.0,89,0.00,,---,0.00,VWS V15.00,2018-02-18 06:23:00,
2018-02-18 01:28:00,63.7,60.4,30.15,WSW,239,3.0,4.0,89,0.00,,---,0.00,VWS V15.00,2018-02-18 06:28:00,
2018-02-18 01:33:00,63.6,60.3,30.15,WSW,244,2.0,4.0,89,0.00,,---,0.00,VWS V15.00,2018-02-18 06:33:00,
2018-02-18 01:38:00,63.6,60.3,30.15,SW,236,1.0,4.0,89,0.00,,---,0.00,VWS V15.00,2018-02-18 06:38:00,
2018-02-18 01:43:00,63.6,60.3,30.15,WSW,243,2.0,4.0,89,0.00,,---,0.00,VWS V15.00,2018-02-18 06:43:00,
2018-02-18 01:48:00,63.6,60.3,30.15,SW,225,2.0,3.0,89,0.00,,---,0.00,VWS V15.00,2018-02-18 06:48:00,
2018-02-18 01:53:00,63.4,60.1,30.15,WSW,237,2.0,5.0,89,0.00,,---,0.00,VWS V15.00,2018-02-18 06:53:00,
2018-02-18 01:58:00,63.3,60.3,30.14,SW,232,1.0,5.0,90,0.00,,---,0.00,VWS V15.00,2018-02-18 06:58:00,
2018-02-18 02:03:00,63.4,60.4,30.14,SW,236,4.0,5.0,90,0.00,,---,0.00,VWS V15.00,2018-02-18 07:03:00,
2018-02-18 02:08:00,63.4,60.4,30.14,SW,236,3.0,5.0,90,0.00,,---,0.00,VWS V15.00,2018-02-18 07:08:00,
2018-02-18 02:13:00,63.3,60.3,30.14,SW,231,2.0,5.0,90,0.00,,---,0.00,VWS V15.00,2018-02-18 07:13:00,